This is the latest recevied weather packets stored in our database for station/object SM0UQT-10. If no packets are shown the sender has not sent any weather packets the latest 10 day(s).
| Time | Temp. | Humidity | Pressure | Rain* | Wind** | Luminosity | Snow |
|---|---|---|---|---|---|---|---|
| 1788635326 | 12.22° C | 61% | 993.7 hPa | - | - | - | - |
| 1788634426 | 12.78° C | 61% | 993.3 hPa | - | - | - | - |
| 1788633525 | 12.78° C | 60% | 993.3 hPa | - | - | - | - |
| 1788632625 | 13.33° C | 61% | 993.1 hPa | - | - | - | - |
| 1788631725 | 13.89° C | 61% | 992.9 hPa | - | - | - | - |
| 1788630825 | 13.89° C | 61% | 992.5 hPa | - | - | - | - |
| 1788629925 | 15° C | 61% | 992.4 hPa | - | - | - | - |
| 1788629025 | 16.11° C | 61% | 992.1 hPa | - | - | - | - |
| 1788628125 | 16.11° C | 62% | 991.9 hPa | - | - | - | - |
| 1788627225 | 16.67° C | 61% | 991.8 hPa | - | - | - | - |
| 1788626325 | 17.22° C | 61% | 991.6 hPa | - | - | - | - |
| 1788625425 | 17.78° C | 62% | 991.6 hPa | - | - | - | - |
| 1788624525 | 18.33° C | 62% | 991.6 hPa | - | - | - | - |
| 1788623625 | 17.78° C | 63% | 991.3 hPa | - | - | - | - |
| 1788622724 | 17.78° C | 62% | 991.3 hPa | - | - | - | - |
| 1788621824 | 18.33° C | 62% | 991 hPa | - | - | - | - |
| 1788620924 | 19.44° C | 63% | 990.9 hPa | - | - | - | - |
| 1788620024 | 18.89° C | 64% | 990.9 hPa | - | - | - | - |
| 1788619124 | 18.89° C | 65% | 990.7 hPa | - | - | - | - |
| 1788618224 | 17.78° C | 63% | 990.6 hPa | - | - | - | - |
| 1788617324 | 16.67° C | 62% | 990.3 hPa | - | - | - | - |
| 1788616424 | 15.56° C | 61% | 990.3 hPa | - | - | - | - |
| 1788615524 | 15.56° C | 61% | 990.3 hPa | - | - | - | - |
| 1788614624 | 15.56° C | 60% | 990.2 hPa | - | - | - | - |
| 1788613724 | 15.56° C | 61% | 990 hPa | - | - | - | - |
* Rain since midnight (hover to see other rain measurements)
** Current wind speed in m/s (hover to see current wind gust speed)